Location: Allen Generating Plant
(35.0740°N, 90.1490°W)
Time: 19:32:23
(UTC+00:00)

deb Explorer IX - All Passes

Search period start: 13 November 2024 00:00
Search period end: 23 November 2024 00:00
Orbit: 493 x 780 km, 38.7° (Epoch: 13 November)

Date Brightness Start Highest point End Pass type
(mag) Time Alt. Az. Time Alt. Az. Time Alt. Az.
13 Nov - 00:49:21 10° WSW 00:54:25 82° NNW 00:59:51 10° ENE visible
13 Nov - 02:32:26 10° W 02:37:41 58° N 02:43:08 10° E visible
13 Nov - 04:15:28 10° WNW 04:20:58 84° NNE 04:26:30 10° ESE night (unlit)
13 Nov - 05:58:42 10° W 06:03:43 36° SSW 06:08:38 10° SSE night (unlit)
13 Nov - 21:49:00 10° S 21:51:43 15° SE 21:54:32 10° ESE daylight
13 Nov - 23:29:06 10° SW 23:33:52 62° SSE 23:39:02 10° ENE visible
14 Nov - 01:11:46 10° W 01:16:49 63° N 01:22:13 10° ENE visible
14 Nov - 02:54:51 10° WNW 03:00:09 63° N 03:05:39 10° E visible
14 Nov - 04:37:47 10° WNW 04:43:14 66° SSW 04:48:41 10° ESE night (unlit)
14 Nov - 06:21:48 10° W 06:25:39 19° SW 06:29:26 10° S night (unlit)
14 Nov - 22:09:28 10° SSW 22:13:29 30° SE 22:17:50 10° E daylight
14 Nov - 23:51:09 10° WSW 23:56:00 85° NNW 00:01:18 10° ENE visible
15 Nov - 01:34:08 10° W 01:39:11 57° N 01:44:34 10° ENE visible
15 Nov - 03:17:04 10° WNW 03:22:27 81° NNE 03:27:59 10° ESE night (unlit)
15 Nov - 05:00:10 10° W 05:05:14 39° SSW 05:10:19 10° SE night (unlit)
15 Nov - 20:51:22 10° SSE 20:53:18 13° SE 20:55:18 10° ESE daylight
15 Nov - 22:30:50 10° SW 22:35:19 56° SSE 22:40:15 10° ENE daylight
16 Nov - 00:13:20 10° W 00:18:10 64° N 00:23:26 10° ENE visible
16 Nov - 01:56:20 10° WNW 02:01:26 61° N 02:06:51 10° E visible
16 Nov - 03:39:10 10° WNW 03:44:30 70° SSW 03:50:00 10° ESE night (unlit)
16 Nov - 05:22:54 10° W 05:26:59 21° SW 05:31:04 10° S night (unlit)
16 Nov - 21:11:10 10° SSW 21:14:50 26° SE 21:18:46 10° E daylight
16 Nov - 22:52:36 10° WSW 22:57:13 90° NNW 23:02:18 10° ENE daylight
17 Nov - 00:35:28 10° W 00:40:18 56° N 00:45:32 10° ENE visible
17 Nov - 02:18:19 10° WNW 02:23:31 77° NNE 02:29:00 10° ESE visible
17 Nov - 04:01:16 10° W 04:06:19 42° SSW 04:11:29 10° SE night (unlit)
17 Nov - 05:47:55 10° SW 05:48:29 10° SW 05:49:03 10° SW night (unlit)
17 Nov - 19:54:16 10° SE 19:54:29 10° SE 19:54:43 10° SE daylight
17 Nov - 21:32:11 10° SW 21:36:24 49° SSE 21:41:02 10° ENE daylight
17 Nov - 23:14:31 10° W 23:19:08 65° N 23:24:12 10° ENE visible
18 Nov - 00:57:26 10° WNW 01:02:19 59° N 01:07:35 10° E visible
18 Nov - 02:40:10 10° WNW 02:45:22 75° SSW 02:50:50 10° ESE visible
18 Nov - 04:23:40 10° W 04:27:53 23° SW 04:32:10 10° SSE night (unlit)
18 Nov - 20:12:31 10° SSW 20:15:46 22° SE 20:19:15 10° E daylight
18 Nov - 21:53:39 10° WSW 21:58:02 85° SSE 22:02:53 10° ENE daylight
18 Nov - 23:36:25 10° W 23:41:01 56° N 23:46:03 10° ENE visible
19 Nov - 01:19:12 10° WNW 01:24:11 73° NNE 01:29:32 10° E visible
19 Nov - 03:02:01 10° W 03:06:59 45° SSW 03:12:10 10° SE visible
19 Nov - 04:47:26 10° WSW 04:49:12 12° SW 04:51:00 10° SSW night (unlit)
19 Nov - 20:33:09 10° SW 20:37:06 43° SSE 20:41:25 10° E daylight
19 Nov - 22:15:19 10° W 22:19:43 67° NNW 22:24:33 10° ENE daylight
19 Nov - 23:58:10 10° WNW 00:02:49 57° N 00:07:52 10° E visible
20 Nov - 01:40:49 10° WNW 01:45:49 80° SSW 01:51:11 10° ESE visible
20 Nov - 03:24:05 10° W 03:28:21 25° SW 03:32:46 10° SSE night (unlit)
20 Nov - 19:13:31 10° S 19:16:20 18° SE 19:19:18 10° E daylight
20 Nov - 20:54:19 10° WSW 20:58:29 78° SSE 21:03:04 10° ENE daylight
20 Nov - 22:36:59 10° W 22:41:21 55° N 22:46:09 10° ENE daylight
21 Nov - 00:19:42 10° WNW 00:24:26 69° NNE 00:29:36 10° E visible
21 Nov - 02:02:24 10° WNW 02:07:14 49° SSW 02:12:22 10° SE visible
21 Nov - 03:47:11 10° WSW 03:49:30 13° SW 03:51:51 10° SSW night (unlit)
21 Nov - 19:33:43 10° SW 19:37:25 37° SSE 19:41:24 10° E daylight
21 Nov - 21:15:43 10° W 21:19:54 70° NNW 21:24:30 10° ENE daylight
21 Nov - 22:58:30 10° WNW 23:02:54 54° N 23:07:44 10° E daylight
22 Nov - 00:41:05 10° WNW 00:45:52 85° SSW 00:51:04 10° ESE visible
22 Nov - 02:24:09 10° W 02:28:24 27° SSW 02:32:52 10° SSE visible
22 Nov - 18:14:09 10° S 18:16:30 15° SE 18:18:54 10° ESE daylight
22 Nov - 19:54:33 10° WSW 19:58:33 70° SSE 20:02:52 10° ENE daylight
22 Nov - 21:37:08 10° W 21:41:17 55° N 21:45:52 10° ENE daylight
22 Nov - 23:19:50 10° WNW 23:24:19 64° NNE 23:29:14 10° E visible
